Content
SEND FEEDBACK

Daily
Averages
Monthly
Summary
United States of America

ST. LOUIS, MISSOURI


Home > North America > United States > Missouri
Elevation: 535 feet     Latitude: 38 45N     Longitude: 090 22W

WEATHER
 
SELECT A DAY
Number of Records: 199,686;   Date Range: 1/1/95 - 10/22/14
 
SHARE

PRINT THIS DATA

[ ← Previous Day ]
WEATHER ALMANAC - MARCH 3, 2013
[ Next Day → ]
[ °C ]   °F
Weather ElementAverageHighLow
Temperature30.8 °F39 °F (2:54 pm)17.1 °F (5:54 am)
Dewpoint17.9 °F24.1 °F (11:54 pm)12.9 °F (6:54 am)
Humidity61 %88 % (5:54 am)36 % (2:54 pm)
Barometer30.14 in30.25 in (1:54 am)30.03 in (8:54 pm)
Wind Speed3.4 mph8.1 mph (11:54 pm)
Weather ElementAverage
Visibility9.6 mi
Wind DirectionENE (64.8 °)

Weather ElementTotal
Precipitation---
Heating Degree Days37 (Base 65)
Averaged from 23 records on March 3, 2013
WEATHER CONDITIONS BREAKOUT
WIND DIRECTION BREAKOUT
WEATHER BY HOUR - MARCH 3, 2013
[ °C ]   °F
Local TimeTemperatureDewpointHumidityBarometerVisibilityWind DirectionWind SpeedGust SpeedPrecipitationEventsConditions
1:54 AM21.9 °F15.1 °F75 %30.25 in10.0 miCalmClear
2:54 AM21.0 °F15.1 °F78 %30.23 in10.0 miWest (270°)3.5 mphClear
3:54 AM19.0 °F15.1 °F85 %30.22 in9.0 miCalmClear
4:54 AM19.0 °F14.0 °F81 %30.21 in9.0 miCalmClear
5:54 AM17.1 °F14.0 °F88 %30.22 in10.0 miCalmClear
6:54 AM17.1 °F12.9 °F84 %30.22 in7.0 miCalmClear
7:54 AM21.0 °F17.1 °F85 %30.23 in7.0 miCalmScattered Clouds
8:54 AM26.1 °F19.0 °F75 %30.23 in9.0 miCalmScattered Clouds
9:54 AM30.0 °F19.9 °F66 %30.22 in10.0 miCalmOvercast
10:54 AM34.0 °F19.9 °F56 %30.20 in10.0 miENE (60°)4.6 mphMostly Cloudy
11:54 AM34.0 °F19.0 °F54 %30.17 in10.0 miCalmMostly Cloudy
12:54 PM36.0 °F18.0 °F48 %30.14 in10.0 miSSE (160°)5.8 mphOvercast
1:54 PM37.9 °F16.0 °F41 %30.12 in10.0 miVariable3.5 mphOvercast
2:54 PM39.0 °F14.0 °F36 %30.09 in10.0 miSE (130°)5.8 mphOvercast
3:54 PM39.0 °F19.0 °F45 %30.09 in10.0 miESE (110°)5.8 mphOvercast
4:54 PM37.9 °F19.9 °F48 %30.08 in10.0 miEast (100°)3.5 mphOvercast
5:54 PM37.0 °F19.0 °F48 %30.07 in10.0 miEast (90°)6.9 mphOvercast
6:54 PM37.0 °F19.0 °F48 %30.06 in10.0 miEast (90°)5.8 mphMostly Cloudy
7:54 PM37.0 °F19.9 °F50 %30.06 in10.0 miESE (120°)6.9 mphOvercast
8:54 PM37.4 °F19.4 °F48 %30.03 in10.0 miESE (120°)6.9 mphOvercast
9:54 PM37.0 °F19.9 °F50 %30.05 in10.0 miESE (120°)5.8 mphOvercast
10:54 PM37.0 °F21.9 °F54 %30.05 in10.0 miVariable5.8 mphOvercast
11:54 PM37.0 °F24.1 °F59 %30.04 in10.0 miESE (120°)8.1 mphOvercast
Hourly data recorded from KSUS, located miles away from St. Louis, Missouri







STORIES FROM OUR PARTNERS